View from above orbital plane
|
View from above satellite
|
Ground track
|
The orbit data is extracted from the following two-line orbital elements,
1 40903U 15049E 21023.72803252 .00002495 00000-0 56062-4 0 9995
2 40903 97.2588 78.5758 0012813 174.2729 303.2917 15.44253282300457
Epoch (UTC): | 23 January 2021 17:28:22 |
Eccentricity: | 0.0012813 |
inclination: | 97.2588° |
perigee height: | 425 km |
apogee height: | 442 km |
right ascension of ascending node: | 78.5758° |
argument of perigee: | 174.2729° |
revolutions per day: | 15.44253282 |
mean anomaly at epoch: | 303.2917° |
orbit number at epoch: | 30045 |
The dashed part of the orbit path shows where the satellite is in the earth's shadow,
|
|